Time,TemperatureF,DewpointF,PressureIn,WindDirection,WindDirectionDegrees,WindSpeedMPH,WindSpeedGustMPH,Humidity,HourlyPrecipIn,Conditions,Clouds,dailyrainin,SoftwareType,DateUTC
2013-07-30 00:03:00,65.7,63.0,30.15,SE,134,0.0,0.0,91,0.00,,,0.00,Wunderground v.1.15,2013-07-30 05:03:00,
2013-07-30 00:09:00,65.6,63.2,30.14,SE,134,0.0,0.0,92,0.00,,,0.00,Wunderground v.1.15,2013-07-30 05:09:00,
2013-07-30 00:14:00,65.7,63.3,30.15,SE,134,0.0,0.0,92,0.00,,,0.00,Wunderground v.1.15,2013-07-30 05:14:00,
2013-07-30 00:20:00,65.6,63.2,30.14,SE,134,0.0,0.0,92,0.00,,,0.00,Wunderground v.1.15,2013-07-30 05:20:00,
2013-07-30 00:26:00,65.4,63.3,30.15,SSE,162,0.0,0.0,93,0.00,,,0.00,Wunderground v.1.15,2013-07-30 05:26:00,
2013-07-30 00:32:00,65.4,63.3,30.14,SSE,162,0.0,0.0,93,0.00,,,0.00,Wunderground v.1.15,2013-07-30 05:32:00,
2013-07-30 00:37:00,65.3,63.2,30.14,SSE,158,0.0,0.0,93,0.00,,,0.00,Wunderground v.1.15,2013-07-30 05:37:00,
2013-07-30 00:42:00,65.4,63.3,30.14,SSE,158,0.0,0.0,93,0.00,,,0.00,Wunderground v.1.15,2013-07-30 05:42:00,
2013-07-30 00:48:00,65.4,63.3,30.14,SSE,159,0.0,0.0,93,0.00,,,0.00,Wunderground v.1.15,2013-07-30 05:48:00,
2013-07-30 00:54:00,65.2,63.1,30.14,SSE,159,0.0,0.0,93,0.00,,,0.00,Wunderground v.1.15,2013-07-30 05:54:00,
2013-07-30 00:59:00,65.0,63.2,30.14,SSE,159,0.0,0.0,94,0.00,,,0.00,Wunderground v.1.15,2013-07-30 05:59:00,
2013-07-30 01:05:00,65.0,63.2,30.14,SSE,160,0.0,0.0,94,0.00,,,0.00,Wunderground v.1.15,2013-07-30 06:05:00,
2013-07-30 01:11:00,65.1,63.3,30.15,SSE,159,0.0,0.0,94,0.00,,,0.00,Wunderground v.1.15,2013-07-30 06:11:00,
2013-07-30 01:16:00,65.2,63.4,30.15,SSW,201,1.0,2.0,94,0.00,,,0.00,Wunderground v.1.15,2013-07-30 06:16:00,
2013-07-30 01:21:00,65.2,63.4,30.16,SSW,200,0.0,0.0,94,0.00,,,0.00,Wunderground v.1.15,2013-07-30 06:21:00,
2013-07-30 01:27:00,65.3,63.5,30.16,SSW,200,0.0,0.0,94,0.00,,,0.00,Wunderground v.1.15,2013-07-30 06:27:00,
2013-07-30 01:33:00,65.5,63.7,30.15,SE,134,1.0,1.0,94,0.00,,,0.00,Wunderground v.1.15,2013-07-30 06:33:00,
2013-07-30 01:39:00,66.0,64.2,30.14,SSE,148,3.0,3.0,94,0.00,,,0.00,Wunderground v.1.15,2013-07-30 06:39:00,
2013-07-30 01:45:00,66.4,64.3,30.14,SE,131,2.0,3.0,93,0.00,,,0.00,Wunderground v.1.15,2013-07-30 06:45:00,
2013-07-30 01:50:00,66.7,64.3,30.14,SSE,150,1.0,1.0,92,0.00,,,0.00,Wunderground v.1.15,2013-07-30 06:50:00,
2013-07-30 01:56:00,67.1,64.4,30.13,SSE,150,2.0,2.0,91,0.00,,,0.00,Wunderground v.1.15,2013-07-30 06:56:00,
2013-07-30 02:01:00,67.7,64.3,30.13,SSE,155,1.0,2.0,89,0.00,,,0.00,Wunderground v.1.15,2013-07-30 07:01:00,
2013-07-30 02:06:00,68.0,64.6,30.13,SE,139,3.0,4.0,89,0.00,,,0.00,Wunderground v.1.15,2013-07-30 07:06:00,
2013-07-30 02:11:00,68.3,64.6,30.13,SE,140,2.0,3.0,88,0.00,,,0.00,Wunderground v.1.15,2013-07-30 07:11:00,
2013-07-30 02:16:00,68.4,64.4,30.13,SE,134,0.0,5.0,87,0.00,,,0.00,Wunderground v.1.15,2013-07-30 07:16:00,
2013-07-30 02:21:00,68.5,64.5,30.13,SE,145,1.0,3.0,87,0.00,,,0.00,Wunderground v.1.15,2013-07-30 07:21:00,
2013-07-30 02:26:00,68.5,64.5,30.13,SE,141,0.0,5.0,87,0.00,,,0.00,Wunderground v.1.15,2013-07-30 07:26:00,
2013-07-30 02:31:00,68.4,64.4,30.13,SW,225,0.0,2.0,87,0.00,,,0.00,Wunderground v.1.15,2013-07-30 07:31:00,
2013-07-30 02:36:00,68.2,64.2,30.13,SW,228,0.0,2.0,87,0.00,,,0.00,Wunderground v.1.15,2013-07-30 07:36:00,
2013-07-30 02:41:00,68.1,64.1,30.13,SE,134,1.0,2.0,87,0.00,,,0.00,Wunderground v.1.15,2013-07-30 07:41:00,
2013-07-30 02:46:00,67.9,63.9,30.13,South,169,0.0,2.0,87,0.00,,,0.00,Wunderground v.1.15,2013-07-30 07:46:00,
2013-07-30 02:51:00,67.9,63.9,30.13,SSE,150,2.0,2.0,87,0.00,,,0.00,Wunderground v.1.15,2013-07-30 07:51:00,
2013-07-30 02:56:00,67.8,63.8,30.13,SE,131,1.0,4.0,87,0.00,,,0.00,Wunderground v.1.15,2013-07-30 07:56:00,
2013-07-30 03:01:00,67.8,63.8,30.13,SSE,160,3.0,3.0,87,0.00,,,0.00,Wunderground v.1.15,2013-07-30 08:01:00,
2013-07-30 03:06:00,67.8,63.8,30.13,SE,129,0.0,3.0,87,0.00,,,0.00,Wunderground v.1.15,2013-07-30 08:06:00,
2013-07-30 03:11:00,67.8,63.8,30.13,SE,142,0.0,1.0,87,0.00,,,0.00,Wunderground v.1.15,2013-07-30 08:11:00,
2013-07-30 03:16:00,67.8,63.8,30.13,SSE,150,2.0,4.0,87,0.00,,,0.00,Wunderground v.1.15,2013-07-30 08:16:00,
2013-07-30 03:21:00,67.8,63.8,30.13,SE,145,1.0,2.0,87,0.00,,,0.00,Wunderground v.1.15,2013-07-30 08:21:00,
2013-07-30 03:26:00,67.9,63.6,30.13,SE,146,2.0,3.0,86,0.00,,,0.00,Wunderground v.1.15,2013-07-30 08:26:00,
2013-07-30 03:31:00,67.9,63.6,30.13,SE,136,2.0,2.0,86,0.00,,,0.00,Wunderground v.1.15,2013-07-30 08:31:00,
2013-07-30 03:36:00,67.9,63.6,30.14,SSE,153,0.0,2.0,86,0.00,,,0.00,Wunderground v.1.15,2013-07-30 08:36:00,
2013-07-30 03:41:00,67.9,63.6,30.14,SE,137,2.0,2.0,86,0.00,,,0.00,Wunderground v.1.15,2013-07-30 08:41:00,
2013-07-30 03:46:00,67.9,63.6,30.14,SSE,159,2.0,3.0,86,0.00,,,0.00,Wunderground v.1.15,2013-07-30 08:46:00,
2013-07-30 03:51:00,67.9,63.6,30.14,SE,143,1.0,1.0,86,0.00,,,0.00,Wunderground v.1.15,2013-07-30 08:51:00,
2013-07-30 03:56:00,67.8,63.5,30.14,SE,146,2.0,2.0,86,0.00,,,0.00,Wunderground v.1.15,2013-07-30 08:56:00,
2013-07-30 04:01:00,67.7,63.4,30.13,SE,136,1.0,1.0,86,0.00,,,0.00,Wunderground v.1.15,2013-07-30 09:01:00,
2013-07-30 04:06:00,67.7,63.4,30.13,SE,136,2.0,3.0,86,0.00,,,0.00,Wunderground v.1.15,2013-07-30 09:06:00,
2013-07-30 04:11:00,67.6,63.3,30.13,SSE,153,3.0,4.0,86,0.00,,,0.00,Wunderground v.1.15,2013-07-30 09:11:00,
2013-07-30 04:16:00,67.7,63.4,30.13,ESE,118,1.0,4.0,86,0.00,,,0.00,Wunderground v.1.15,2013-07-30 09:16:00,
2013-07-30 04:21:00,67.8,63.1,30.13,SSE,150,1.0,2.0,85,0.00,,,0.00,Wunderground v.1.15,2013-07-30 09:21:00,
2013-07-30 04:26:00,67.9,63.2,30.13,SE,143,2.0,3.0,85,0.00,,,0.00,Wunderground v.1.15,2013-07-30 09:26:00,
2013-07-30 04:31:00,68.1,63.1,30.13,SE,132,2.0,3.0,84,0.00,,,0.00,Wunderground v.1.15,2013-07-30 09:31:00,
2013-07-30 04:36:00,68.1,63.1,30.13,SE,145,4.0,5.0,84,0.00,,,0.00,Wunderground v.1.15,2013-07-30 09:36:00,
2013-07-30 04:41:00,68.1,63.1,30.13,SE,136,1.0,5.0,84,0.00,,,0.00,Wunderground v.1.15,2013-07-30 09:41:00,
2013-07-30 04:46:00,68.1,63.1,30.13,SE,143,2.0,5.0,84,0.00,,,0.00,Wunderground v.1.15,2013-07-30 09:46:00,
2013-07-30 04:51:00,68.1,63.1,30.12,East,79,3.0,5.0,84,0.00,,,0.00,Wunderground v.1.15,2013-07-30 09:51:00,
2013-07-30 04:56:00,68.2,62.8,30.12,SSE,155,4.0,5.0,83,0.00,,,0.00,Wunderground v.1.15,2013-07-30 09:56:00,
2013-07-30 05:01:00,68.2,62.8,30.12,SSE,150,2.0,4.0,83,0.00,,,0.00,Wunderground v.1.15,2013-07-30 10:01:00,
2013-07-30 05:06:00,68.2,62.8,30.12,SE,138,3.0,6.0,83,0.00,,,0.00,Wunderground v.1.15,2013-07-30 10:06:00,
2013-07-30 05:12:00,68.2,62.8,30.12,SE,132,3.0,4.0,83,0.00,,,0.00,Wunderground v.1.15,2013-07-30 10:12:00,
2013-07-30 05:17:00,68.2,62.8,30.12,SSE,153,0.0,4.0,83,0.00,,,0.00,Wunderground v.1.15,2013-07-30 10:17:00,
2013-07-30 05:22:00,68.1,62.7,30.12,SSE,150,1.0,3.0,83,0.00,,,0.00,Wunderground v.1.15,2013-07-30 10:22:00,
2013-07-30 05:27:00,68.1,62.7,30.12,SSE,151,3.0,4.0,83,0.00,,,0.00,Wunderground v.1.15,2013-07-30 10:27:00,
2013-07-30 05:32:00,68.2,62.8,30.12,ESE,102,1.0,4.0,83,0.00,,,0.00,Wunderground v.1.15,2013-07-30 10:32:00,
2013-07-30 05:37:00,68.2,62.8,30.12,SSE,150,1.0,6.0,83,0.00,,,0.00,Wunderground v.1.15,2013-07-30 10:37:00,
2013-07-30 05:42:00,68.2,62.8,30.12,East,98,1.0,3.0,83,0.00,,,0.00,Wunderground v.1.15,2013-07-30 10:42:00,
2013-07-30 05:47:00,68.3,62.9,30.12,SSE,153,3.0,4.0,83,0.00,,,0.00,Wunderground v.1.15,2013-07-30 10:47:00,
2013-07-30 05:52:00,68.3,62.9,30.13,South,171,2.0,4.0,83,0.00,,,0.00,Wunderground v.1.15,2013-07-30 10:52:00,
2013-07-30 05:58:00,68.3,62.9,30.13,SSE,160,0.0,4.0,83,0.00,,,0.00,Wunderground v.1.15,2013-07-30 10:58:00,
2013-07-30 06:03:00,68.2,62.8,30.13,ESE,121,3.0,3.0,83,0.00,,,0.00,Wunderground v.1.15,2013-07-30 11:03:00,
2013-07-30 06:08:00,68.2,62.8,30.13,SE,145,1.0,4.0,83,0.00,,,0.00,Wunderground v.1.15,2013-07-30 11:08:00,
2013-07-30 06:13:00,68.1,62.7,30.13,East,92,2.0,4.0,83,0.00,,,0.00,Wunderground v.1.15,2013-07-30 11:13:00,
2013-07-30 06:18:00,68.1,62.7,30.13,SSE,155,2.0,6.0,83,0.00,,,0.00,Wunderground v.1.15,2013-07-30 11:18:00,
2013-07-30 06:23:00,68.1,62.7,30.13,SSE,150,0.0,4.0,83,0.00,,,0.00,Wunderground v.1.15,2013-07-30 11:23:00,
2013-07-30 06:28:00,68.1,62.7,30.13,WSW,240,0.0,4.0,83,0.00,,,0.00,Wunderground v.1.15,2013-07-30 11:28:00,
2013-07-30 06:33:00,68.0,62.6,30.13,SSW,203,2.0,5.0,83,0.00,,,0.00,Wunderground v.1.15,2013-07-30 11:33:00,
2013-07-30 06:38:00,67.9,62.9,30.14,SW,225,1.0,5.0,84,0.00,,,0.00,Wunderground v.1.15,2013-07-30 11:38:00,
2013-07-30 06:43:00,67.7,63.0,30.14,SW,221,1.0,3.0,85,0.00,,,0.00,Wunderground v.1.15,2013-07-30 11:43:00,
2013-07-30 06:48:00,67.6,63.3,30.14,SSW,212,0.0,3.0,86,0.00,,,0.00,Wunderground v.1.15,2013-07-30 11:48:00,
2013-07-30 06:53:00,67.3,63.3,30.15,WSW,250,2.0,5.0,87,0.00,,,0.00,Wunderground v.1.15,2013-07-30 11:53:00,
2013-07-30 06:58:00,67.2,63.2,30.15,SW,226,2.0,5.0,87,0.00,,,0.00,Wunderground v.1.15,2013-07-30 11:58:00,
2013-07-30 07:03:00,67.0,63.3,30.14,WSW,245,0.0,4.0,88,0.00,,,0.00,Wunderground v.1.15,2013-07-30 12:03:00,
2013-07-30 07:08:00,66.8,63.1,30.14,SW,228,2.0,4.0,88,0.00,,,0.00,Wunderground v.1.15,2013-07-30 12:08:00,
2013-07-30 07:13:00,66.7,63.4,30.15,WSW,243,2.0,2.0,89,0.00,,,0.00,Wunderground v.1.15,2013-07-30 12:13:00,
2013-07-30 07:18:00,66.4,63.4,30.15,SW,229,0.0,4.0,90,0.00,,,0.01,Wunderground v.1.15,2013-07-30 12:18:00,
2013-07-30 07:23:00,66.2,63.5,30.15,WSW,245,1.0,3.0,91,0.10,,,0.02,Wunderground v.1.15,2013-07-30 12:23:00,
2013-07-30 07:28:00,66.1,63.4,30.15,SE,139,0.0,4.0,91,0.15,,,0.03,Wunderground v.1.15,2013-07-30 12:28:00,
2013-07-30 07:33:00,66.0,63.6,30.15,SW,219,0.0,2.0,92,0.08,,,0.04,Wunderground v.1.15,2013-07-30 12:33:00,
2013-07-30 07:38:00,66.0,63.6,30.15,SE,142,1.0,3.0,92,0.08,,,0.04,Wunderground v.1.15,2013-07-30 12:38:00,
2013-07-30 07:43:00,65.9,63.5,30.15,SW,228,2.0,4.0,92,0.05,,,0.05,Wunderground v.1.15,2013-07-30 12:43:00,
2013-07-30 07:48:00,65.9,63.5,30.15,SSW,205,1.0,4.0,92,0.05,,,0.05,Wunderground v.1.15,2013-07-30 12:48:00,
2013-07-30 07:53:00,65.8,63.4,30.14,SE,131,3.0,6.0,92,0.09,,,0.06,Wunderground v.1.15,2013-07-30 12:53:00,
2013-07-30 07:58:00,65.7,63.3,30.14,SSE,148,3.0,6.0,92,0.13,,,0.07,Wunderground v.1.15,2013-07-30 12:58:00,
2013-07-30 08:03:00,65.7,63.3,30.14,SSE,152,1.0,6.0,92,0.07,,,0.07,Wunderground v.1.15,2013-07-30 13:03:00,
2013-07-30 08:08:00,65.7,63.6,30.14,SE,130,2.0,6.0,93,0.04,,,0.07,Wunderground v.1.15,2013-07-30 13:08:00,
2013-07-30 08:13:00,65.7,63.6,30.14,SE,133,1.0,4.0,93,0.00,,,0.07,Wunderground v.1.15,2013-07-30 13:13:00,
2013-07-30 08:18:00,65.8,64.0,30.13,SSE,150,2.0,4.0,94,0.00,,,0.07,Wunderground v.1.15,2013-07-30 13:18:00,
2013-07-30 08:23:00,65.9,64.1,30.13,SE,145,5.0,5.0,94,0.00,,,0.07,Wunderground v.1.15,2013-07-30 13:23:00,
2013-07-30 08:28:00,66.0,64.2,30.14,SW,228,2.0,5.0,94,0.00,,,0.07,Wunderground v.1.15,2013-07-30 13:28:00,
2013-07-30 08:33:00,66.0,64.5,30.14,South,182,0.0,3.0,95,0.00,,,0.07,Wunderground v.1.15,2013-07-30 13:33:00,
2013-07-30 08:38:00,66.1,64.6,30.14,ESE,109,2.0,4.0,95,0.00,,,0.07,Wunderground v.1.15,2013-07-30 13:38:00,
2013-07-30 08:43:00,66.1,64.6,30.14,SSE,149,1.0,6.0,95,0.00,,,0.07,Wunderground v.1.15,2013-07-30 13:43:00,
2013-07-30 08:48:00,66.2,64.4,30.14,SSE,153,2.0,6.0,94,0.00,,,0.07,Wunderground v.1.15,2013-07-30 13:48:00,
2013-07-30 08:53:00,66.3,64.2,30.14,SE,139,2.0,6.0,93,0.00,,,0.07,Wunderground v.1.15,2013-07-30 13:53:00,
2013-07-30 08:58:00,66.4,64.3,30.13,SE,139,1.0,6.0,93,0.00,,,0.07,Wunderground v.1.15,2013-07-30 13:58:00,
2013-07-30 09:03:00,66.5,64.4,30.14,SSE,157,3.0,3.0,93,0.00,,,0.07,Wunderground v.1.15,2013-07-30 14:03:00,
2013-07-30 09:08:00,66.7,64.0,30.13,SSE,147,3.0,4.0,91,0.00,,,0.07,Wunderground v.1.15,2013-07-30 14:08:00,
2013-07-30 09:13:00,66.9,64.2,30.13,SE,137,2.0,4.0,91,0.00,,,0.07,Wunderground v.1.15,2013-07-30 14:13:00,
2013-07-30 09:18:00,67.0,64.3,30.13,SE,134,2.0,5.0,91,0.00,,,0.07,Wunderground v.1.15,2013-07-30 14:18:00,
2013-07-30 09:23:00,67.1,64.1,30.13,SSE,153,2.0,4.0,90,0.00,,,0.07,Wunderground v.1.15,2013-07-30 14:23:00,
2013-07-30 09:28:00,67.1,64.4,30.13,SE,145,0.0,4.0,91,0.00,,,0.07,Wunderground v.1.15,2013-07-30 14:28:00,
2013-07-30 09:33:00,67.1,64.1,30.12,ESE,121,3.0,4.0,90,0.00,,,0.07,Wunderground v.1.15,2013-07-30 14:33:00,
2013-07-30 09:38:00,67.2,64.5,30.12,SE,132,2.0,5.0,91,0.00,,,0.07,Wunderground v.1.15,2013-07-30 14:38:00,
2013-07-30 09:43:00,67.2,64.5,30.12,SE,133,2.0,4.0,91,0.00,,,0.07,Wunderground v.1.15,2013-07-30 14:43:00,
2013-07-30 09:48:00,67.2,64.8,30.12,ESE,119,2.0,5.0,92,0.00,,,0.07,Wunderground v.1.15,2013-07-30 14:48:00,
2013-07-30 09:53:00,67.3,64.9,30.12,SE,146,3.0,4.0,92,0.00,,,0.08,Wunderground v.1.15,2013-07-30 14:53:00,
2013-07-30 09:58:00,67.3,64.9,30.12,SE,139,1.0,4.0,92,0.00,,,0.08,Wunderground v.1.15,2013-07-30 14:58:00,
2013-07-30 10:03:00,67.5,65.1,30.12,SE,139,0.0,4.0,92,0.00,,,0.08,Wunderground v.1.15,2013-07-30 15:03:00,
2013-07-30 10:08:00,67.6,65.2,30.12,East,101,2.0,4.0,92,0.00,,,0.08,Wunderground v.1.15,2013-07-30 15:08:00,
2013-07-30 10:13:00,67.7,65.3,30.12,SSE,153,2.0,5.0,92,0.33,,,0.10,Wunderground v.1.15,2013-07-30 15:13:00,
2013-07-30 10:18:00,67.5,65.1,30.12,ESE,121,2.0,7.0,92,0.17,,,0.12,Wunderground v.1.15,2013-07-30 15:18:00,
2013-07-30 10:23:00,67.3,64.9,30.12,East,96,3.0,4.0,92,0.35,,,0.17,Wunderground v.1.15,2013-07-30 15:23:00,
2013-07-30 10:28:00,67.0,64.9,30.11,SE,132,4.0,10.0,93,0.13,,,0.18,Wunderground v.1.15,2013-07-30 15:28:00,
2013-07-30 10:33:00,66.7,64.6,30.11,SSE,157,2.0,10.0,93,0.06,,,0.18,Wunderground v.1.15,2013-07-30 15:33:00,
2013-07-30 10:38:00,66.6,64.5,30.11,SE,137,3.0,10.0,93,0.04,,,0.18,Wunderground v.1.15,2013-07-30 15:38:00,
2013-07-30 10:43:00,66.7,64.6,30.11,East,96,0.0,4.0,93,0.00,,,0.18,Wunderground v.1.15,2013-07-30 15:43:00,
2013-07-30 10:48:00,66.9,64.8,30.11,SE,141,0.0,4.0,93,0.00,,,0.18,Wunderground v.1.15,2013-07-30 15:48:00,
2013-07-30 10:53:00,67.1,65.0,30.11,SSE,148,2.0,4.0,93,0.00,,,0.18,Wunderground v.1.15,2013-07-30 15:53:00,
2013-07-30 10:58:00,67.3,65.2,30.12,SSE,154,2.0,7.0,93,0.00,,,0.18,Wunderground v.1.15,2013-07-30 15:58:00,
2013-07-30 11:03:00,67.5,65.4,30.12,SE,136,1.0,8.0,93,0.00,,,0.18,Wunderground v.1.15,2013-07-30 16:03:00,
2013-07-30 11:08:00,67.7,65.6,30.12,SE,139,1.0,8.0,93,0.00,,,0.18,Wunderground v.1.15,2013-07-30 16:08:00,
2013-07-30 11:13:00,67.7,65.6,30.13,SSW,212,0.0,3.0,93,0.00,,,0.18,Wunderground v.1.15,2013-07-30 16:13:00,
2013-07-30 11:18:00,67.7,65.6,30.14,WNW,290,4.0,7.0,93,0.00,,,0.18,Wunderground v.1.15,2013-07-30 16:18:00,
2013-07-30 11:23:00,67.7,65.9,30.14,WNW,290,2.0,4.0,94,0.00,,,0.18,Wunderground v.1.15,2013-07-30 16:23:00,
2013-07-30 11:28:00,67.7,65.9,30.15,WNW,301,3.0,4.0,94,0.00,,,0.18,Wunderground v.1.15,2013-07-30 16:28:00,
2013-07-30 11:33:00,67.9,66.4,30.14,WSW,247,0.0,2.0,95,0.00,,,0.18,Wunderground v.1.15,2013-07-30 16:33:00,
2013-07-30 11:38:00,68.0,66.5,30.14,WSW,252,0.0,2.0,95,0.00,,,0.18,Wunderground v.1.15,2013-07-30 16:38:00,
2013-07-30 11:43:00,68.2,66.4,30.15,WSW,253,0.0,1.0,94,0.00,,,0.18,Wunderground v.1.15,2013-07-30 16:43:00,
2013-07-30 11:48:00,68.3,66.8,30.14,SW,229,0.0,1.0,95,0.00,,,0.18,Wunderground v.1.15,2013-07-30 16:48:00,
2013-07-30 11:53:00,68.5,66.7,30.14,SW,231,0.0,0.0,94,0.00,,,0.18,Wunderground v.1.15,2013-07-30 16:53:00,
2013-07-30 11:58:00,68.7,66.9,30.14,SW,231,0.0,1.0,94,0.00,,,0.19,Wunderground v.1.15,2013-07-30 16:58:00,
2013-07-30 12:03:00,68.8,67.0,30.14,WSW,246,0.0,0.0,94,0.00,,,0.19,Wunderground v.1.15,2013-07-30 17:03:00,
2013-07-30 12:08:00,68.9,67.1,30.14,SE,138,1.0,1.0,94,0.00,,,0.19,Wunderground v.1.15,2013-07-30 17:08:00,
2013-07-30 12:13:00,68.9,67.1,30.14,ESE,123,0.0,2.0,94,0.00,,,0.19,Wunderground v.1.15,2013-07-30 17:13:00,
2013-07-30 12:18:00,69.1,67.3,30.14,SE,136,0.0,2.0,94,0.00,,,0.19,Wunderground v.1.15,2013-07-30 17:18:00,
2013-07-30 12:23:00,69.3,67.5,30.14,SSW,194,0.0,1.0,94,0.00,,,0.19,Wunderground v.1.15,2013-07-30 17:23:00,
2013-07-30 12:29:00,69.4,67.6,30.14,SW,215,1.0,2.0,94,0.00,,,0.19,Wunderground v.1.15,2013-07-30 17:29:00,
2013-07-30 12:34:00,69.5,67.7,30.14,ESE,109,2.0,2.0,94,0.00,,,0.19,Wunderground v.1.15,2013-07-30 17:34:00,
2013-07-30 12:39:00,69.7,67.9,30.13,SW,229,0.0,4.0,94,0.00,,,0.20,Wunderground v.1.15,2013-07-30 17:39:00,
2013-07-30 12:44:00,69.7,67.9,30.13,WSW,242,0.0,2.0,94,0.00,,,0.20,Wunderground v.1.15,2013-07-30 17:44:00,
2013-07-30 12:49:00,69.8,68.0,30.13,SW,231,1.0,2.0,94,0.00,,,0.20,Wunderground v.1.15,2013-07-30 17:49:00,
2013-07-30 12:54:00,69.8,68.0,30.13,SSE,158,0.0,2.0,94,0.00,,,0.21,Wunderground v.1.15,2013-07-30 17:54:00,
2013-07-30 12:59:00,69.9,68.1,30.13,SSE,153,1.0,2.0,94,0.00,,,0.21,Wunderground v.1.15,2013-07-30 17:59:00,
2013-07-30 13:04:00,69.9,68.1,30.13,South,171,2.0,3.0,94,0.00,,,0.21,Wunderground v.1.15,2013-07-30 18:04:00,
2013-07-30 13:09:00,70.0,68.2,30.12,SW,219,0.0,3.0,94,0.00,,,0.21,Wunderground v.1.15,2013-07-30 18:09:00,
2013-07-30 13:14:00,70.1,68.3,30.12,South,169,0.0,1.0,94,0.00,,,0.21,Wunderground v.1.15,2013-07-30 18:14:00,
2013-07-30 13:19:00,70.2,68.4,30.12,South,171,0.0,2.0,94,0.00,,,0.22,Wunderground v.1.15,2013-07-30 18:19:00,
2013-07-30 13:24:00,70.3,68.5,30.12,SSE,147,1.0,3.0,94,0.00,,,0.22,Wunderground v.1.15,2013-07-30 18:24:00,
2013-07-30 13:29:00,70.3,68.5,30.12,SSE,149,0.0,3.0,94,0.00,,,0.22,Wunderground v.1.15,2013-07-30 18:29:00,
2013-07-30 13:34:00,70.4,68.6,30.12,SSE,152,1.0,5.0,94,0.04,,,0.23,Wunderground v.1.15,2013-07-30 18:34:00,
2013-07-30 13:39:00,70.4,68.6,30.11,South,180,1.0,5.0,94,0.04,,,0.23,Wunderground v.1.15,2013-07-30 18:39:00,
2013-07-30 13:44:00,70.5,69.0,30.11,SSE,149,1.0,3.0,95,0.04,,,0.23,Wunderground v.1.15,2013-07-30 18:44:00,
2013-07-30 13:49:00,70.6,68.8,30.11,SE,141,2.0,3.0,94,0.00,,,0.23,Wunderground v.1.15,2013-07-30 18:49:00,
2013-07-30 13:54:00,70.7,69.2,30.10,SE,139,4.0,4.0,95,0.00,,,0.23,Wunderground v.1.15,2013-07-30 18:54:00,
2013-07-30 13:59:00,70.7,69.2,30.10,SE,136,1.0,4.0,95,0.00,,,0.23,Wunderground v.1.15,2013-07-30 18:59:00,
2013-07-30 14:04:00,70.7,69.2,30.09,South,191,1.0,4.0,95,0.00,,,0.23,Wunderground v.1.15,2013-07-30 19:04:00,
2013-07-30 14:09:00,70.8,69.3,30.10,SSE,150,2.0,4.0,95,0.00,,,0.23,Wunderground v.1.15,2013-07-30 19:09:00,
2013-07-30 14:14:00,70.8,69.3,30.09,South,187,4.0,5.0,95,0.00,,,0.23,Wunderground v.1.15,2013-07-30 19:14:00,
2013-07-30 14:19:00,70.8,69.3,30.09,SSE,156,4.0,6.0,95,0.00,,,0.23,Wunderground v.1.15,2013-07-30 19:19:00,
2013-07-30 14:24:00,70.8,69.3,30.09,SSE,150,0.0,3.0,95,0.00,,,0.23,Wunderground v.1.15,2013-07-30 19:24:00,
2013-07-30 14:29:00,70.8,69.3,30.09,ESE,110,2.0,6.0,95,0.00,,,0.24,Wunderground v.1.15,2013-07-30 19:29:00,
2013-07-30 14:34:00,70.7,69.2,30.09,SE,145,4.0,7.0,95,0.00,,,0.24,Wunderground v.1.15,2013-07-30 19:34:00,
2013-07-30 14:39:00,70.8,69.3,30.08,SE,142,2.0,7.0,95,0.00,,,0.24,Wunderground v.1.15,2013-07-30 19:39:00,
2013-07-30 14:44:00,70.9,69.4,30.08,SSE,160,2.0,6.0,95,0.05,,,0.25,Wunderground v.1.15,2013-07-30 19:44:00,
2013-07-30 14:49:00,71.1,69.9,30.08,SSE,168,2.0,6.0,96,0.05,,,0.25,Wunderground v.1.15,2013-07-30 19:49:00,
2013-07-30 14:54:00,71.2,70.0,30.07,SSE,148,6.0,7.0,96,0.04,,,0.25,Wunderground v.1.15,2013-07-30 19:54:00,
2013-07-30 14:59:00,71.3,70.1,30.07,SE,133,5.0,10.0,96,0.00,,,0.25,Wunderground v.1.15,2013-07-30 19:59:00,
2013-07-30 15:04:00,71.5,70.3,30.06,SSE,157,3.0,5.0,96,0.00,,,0.25,Wunderground v.1.15,2013-07-30 20:04:00,
2013-07-30 15:09:00,71.6,70.1,30.06,SSE,153,3.0,6.0,95,0.00,,,0.25,Wunderground v.1.15,2013-07-30 20:09:00,
2013-07-30 15:14:00,71.8,70.3,30.06,SE,139,3.0,6.0,95,0.00,,,0.25,Wunderground v.1.15,2013-07-30 20:14:00,
2013-07-30 15:19:00,72.0,70.5,30.05,ESE,120,6.0,7.0,95,0.00,,,0.25,Wunderground v.1.15,2013-07-30 20:19:00,
2013-07-30 15:24:00,72.0,70.5,30.05,ESE,113,0.0,7.0,95,0.00,,,0.25,Wunderground v.1.15,2013-07-30 20:24:00,
2013-07-30 15:29:00,72.1,70.6,30.05,SE,145,2.0,7.0,95,0.00,,,0.25,Wunderground v.1.15,2013-07-30 20:29:00,
2013-07-30 15:34:00,72.1,70.6,30.05,SE,145,3.0,7.0,95,0.00,,,0.25,Wunderground v.1.15,2013-07-30 20:34:00,
2013-07-30 15:39:00,72.2,70.7,30.05,SW,222,2.0,7.0,95,0.00,,,0.25,Wunderground v.1.15,2013-07-30 20:39:00,
2013-07-30 15:44:00,72.2,70.7,30.06,SE,145,2.0,7.0,95,0.00,,,0.25,Wunderground v.1.15,2013-07-30 20:44:00,
2013-07-30 15:49:00,72.3,70.8,30.05,SE,134,1.0,7.0,95,0.00,,,0.25,Wunderground v.1.15,2013-07-30 20:49:00,
2013-07-30 15:54:00,72.4,70.9,30.04,ENE,75,2.0,6.0,95,0.00,,,0.25,Wunderground v.1.15,2013-07-30 20:54:00,
2013-07-30 15:59:00,72.5,71.0,30.04,SSW,211,4.0,6.0,95,0.00,,,0.25,Wunderground v.1.15,2013-07-30 20:59:00,
2013-07-30 16:04:00,72.6,71.1,30.04,SSW,212,2.0,5.0,95,0.00,,,0.25,Wunderground v.1.15,2013-07-30 21:04:00,
2013-07-30 16:09:00,72.7,71.2,30.05,SW,236,4.0,5.0,95,0.00,,,0.25,Wunderground v.1.15,2013-07-30 21:09:00,
2013-07-30 16:14:00,72.7,71.2,30.06,SSE,163,1.0,5.0,95,0.00,,,0.25,Wunderground v.1.15,2013-07-30 21:14:00,
2013-07-30 16:19:00,72.8,71.3,30.06,SE,143,0.0,5.0,95,0.00,,,0.25,Wunderground v.1.15,2013-07-30 21:19:00,
2013-07-30 16:24:00,72.8,71.3,30.06,SW,229,0.0,3.0,95,0.00,,,0.25,Wunderground v.1.15,2013-07-30 21:24:00,
2013-07-30 16:29:00,72.9,71.4,30.06,WSW,249,0.0,3.0,95,0.00,,,0.25,Wunderground v.1.15,2013-07-30 21:29:00,
2013-07-30 16:34:00,72.9,71.4,30.06,SW,221,0.0,4.0,95,0.00,,,0.25,Wunderground v.1.15,2013-07-30 21:34:00,
2013-07-30 16:39:00,72.9,71.4,30.07,SSW,204,0.0,4.0,95,0.00,,,0.25,Wunderground v.1.15,2013-07-30 21:39:00,
2013-07-30 16:44:00,72.9,71.4,30.07,SW,226,2.0,3.0,95,0.00,,,0.26,Wunderground v.1.15,2013-07-30 21:44:00,
2013-07-30 16:49:00,72.8,71.3,30.06,SSE,153,2.0,3.0,95,0.00,,,0.26,Wunderground v.1.15,2013-07-30 21:49:00,
2013-07-30 16:54:00,72.7,71.2,30.06,SSE,158,0.0,3.0,95,0.00,,,0.26,Wunderground v.1.15,2013-07-30 21:54:00,
2013-07-30 16:59:00,72.7,71.2,30.06,ESE,117,0.0,3.0,95,0.00,,,0.26,Wunderground v.1.15,2013-07-30 21:59:00,
2013-07-30 17:04:00,72.8,71.3,30.06,SE,134,1.0,2.0,95,0.00,,,0.27,Wunderground v.1.15,2013-07-30 22:04:00,
2013-07-30 17:09:00,72.8,71.3,30.06,WSW,243,1.0,3.0,95,0.00,,,0.27,Wunderground v.1.15,2013-07-30 22:09:00,
2013-07-30 17:14:00,72.8,71.3,30.07,SW,231,1.0,3.0,95,0.00,,,0.27,Wunderground v.1.15,2013-07-30 22:14:00,
2013-07-30 17:19:00,72.7,71.2,30.06,WSW,242,0.0,3.0,95,0.00,,,0.27,Wunderground v.1.15,2013-07-30 22:19:00,
2013-07-30 17:24:00,72.7,71.2,30.06,SSE,152,0.0,2.0,95,0.00,,,0.27,Wunderground v.1.15,2013-07-30 22:24:00,
2013-07-30 17:29:00,72.7,71.2,30.06,SSE,150,1.0,2.0,95,0.00,,,0.28,Wunderground v.1.15,2013-07-30 22:29:00,
2013-07-30 17:34:00,72.6,71.1,30.06,SW,228,0.0,3.0,95,0.00,,,0.28,Wunderground v.1.15,2013-07-30 22:34:00,
2013-07-30 17:39:00,72.6,71.1,30.06,SSE,153,0.0,3.0,95,0.00,,,0.28,Wunderground v.1.15,2013-07-30 22:39:00,
2013-07-30 17:44:00,72.5,71.0,30.06,SE,129,0.0,2.0,95,0.04,,,0.29,Wunderground v.1.15,2013-07-30 22:44:00,
2013-07-30 17:49:00,72.4,70.9,30.05,South,177,0.0,4.0,95,0.04,,,0.29,Wunderground v.1.15,2013-07-30 22:49:00,
2013-07-30 17:54:00,72.3,70.8,30.04,East,94,5.0,6.0,95,0.04,,,0.29,Wunderground v.1.15,2013-07-30 22:54:00,
2013-07-30 17:59:00,72.2,70.7,30.04,SE,129,3.0,6.0,95,0.05,,,0.30,Wunderground v.1.15,2013-07-30 22:59:00,
2013-07-30 18:04:00,72.1,70.6,30.04,East,89,2.0,5.0,95,0.05,,,0.30,Wunderground v.1.15,2013-07-30 23:04:00,
2013-07-30 18:09:00,72.0,70.5,30.05,SE,146,3.0,6.0,95,0.04,,,0.30,Wunderground v.1.15,2013-07-30 23:09:00,
2013-07-30 18:14:00,71.9,70.4,30.05,SE,140,1.0,3.0,95,0.00,,,0.30,Wunderground v.1.15,2013-07-30 23:14:00,
2013-07-30 18:19:00,71.8,70.3,30.05,SE,143,2.0,4.0,95,0.00,,,0.30,Wunderground v.1.15,2013-07-30 23:19:00,
2013-07-30 18:24:00,71.8,70.3,30.05,SE,141,0.0,2.0,95,0.00,,,0.30,Wunderground v.1.15,2013-07-30 23:24:00,
2013-07-30 18:29:00,71.8,70.3,30.05,ENE,75,0.0,2.0,95,0.00,,,0.30,Wunderground v.1.15,2013-07-30 23:29:00,
2013-07-30 18:34:00,71.8,70.3,30.04,ESE,103,2.0,2.0,95,0.00,,,0.30,Wunderground v.1.15,2013-07-30 23:34:00,
2013-07-30 18:39:00,71.7,70.2,30.05,SW,229,0.0,2.0,95,0.00,,,0.30,Wunderground v.1.15,2013-07-30 23:39:00,
2013-07-30 18:44:00,71.6,70.1,30.05,SE,135,2.0,2.0,95,0.00,,,0.30,Wunderground v.1.15,2013-07-30 23:44:00,
2013-07-30 18:49:00,71.5,70.0,30.05,ESE,121,1.0,3.0,95,0.00,,,0.30,Wunderground v.1.15,2013-07-30 23:49:00,
2013-07-30 18:54:00,71.5,70.0,30.04,ESE,121,3.0,4.0,95,0.00,,,0.30,Wunderground v.1.15,2013-07-30 23:54:00,
2013-07-30 18:59:00,71.4,69.9,30.04,ESE,105,3.0,4.0,95,0.00,,,0.30,Wunderground v.1.15,2013-07-30 23:59:00,
2013-07-30 19:04:00,71.2,69.7,30.03,ESE,120,2.0,4.0,95,0.00,,,0.30,Wunderground v.1.15,2013-07-31 00:04:00,
2013-07-30 19:09:00,71.1,69.6,30.03,SE,134,1.0,6.0,95,0.00,,,0.30,Wunderground v.1.15,2013-07-31 00:09:00,
2013-07-30 19:14:00,71.1,69.6,30.03,SE,141,1.0,4.0,95,0.00,,,0.30,Wunderground v.1.15,2013-07-31 00:14:00,
2013-07-30 19:19:00,71.0,69.5,30.03,SSE,147,3.0,5.0,95,0.00,,,0.30,Wunderground v.1.15,2013-07-31 00:19:00,
2013-07-30 19:24:00,71.0,69.5,30.03,SSE,155,0.0,6.0,95,0.00,,,0.30,Wunderground v.1.15,2013-07-31 00:24:00,
2013-07-30 19:29:00,70.9,69.4,30.04,ESE,121,2.0,6.0,95,0.00,,,0.30,Wunderground v.1.15,2013-07-31 00:29:00,
2013-07-30 19:34:00,70.9,69.4,30.03,ESE,113,1.0,5.0,95,0.00,,,0.30,Wunderground v.1.15,2013-07-31 00:34:00,
2013-07-30 19:39:00,70.9,69.4,30.03,South,176,2.0,5.0,95,0.00,,,0.30,Wunderground v.1.15,2013-07-31 00:39:00,
2013-07-30 19:44:00,70.9,69.4,30.03,ESE,107,2.0,5.0,95,0.00,,,0.30,Wunderground v.1.15,2013-07-31 00:44:00,
2013-07-30 19:49:00,70.9,69.4,30.03,SSE,148,2.0,5.0,95,0.00,,,0.30,Wunderground v.1.15,2013-07-31 00:49:00,
2013-07-30 19:54:00,70.9,69.4,30.03,SE,135,0.0,2.0,95,0.00,,,0.30,Wunderground v.1.15,2013-07-31 00:54:00,
2013-07-30 19:59:00,70.8,69.3,30.03,ESE,110,2.0,3.0,95,0.00,,,0.30,Wunderground v.1.15,2013-07-31 00:59:00,
2013-07-30 20:04:00,70.8,69.3,30.03,SE,138,0.0,5.0,95,0.00,,,0.30,Wunderground v.1.15,2013-07-31 01:04:00,
2013-07-30 20:09:00,70.7,69.2,30.03,SW,221,0.0,5.0,95,0.00,,,0.30,Wunderground v.1.15,2013-07-31 01:09:00,
2013-07-30 20:14:00,70.7,69.2,30.03,SE,133,1.0,1.0,95,0.00,,,0.30,Wunderground v.1.15,2013-07-31 01:14:00,
2013-07-30 20:19:00,70.7,69.2,30.04,SSE,155,0.0,1.0,95,0.00,,,0.30,Wunderground v.1.15,2013-07-31 01:19:00,
2013-07-30 20:24:00,70.6,69.4,30.04,WSW,257,1.0,2.0,96,0.00,,,0.30,Wunderground v.1.15,2013-07-31 01:24:00,
2013-07-30 20:29:00,70.5,69.3,30.04,SSE,167,0.0,2.0,96,0.00,,,0.30,Wunderground v.1.15,2013-07-31 01:29:00,
2013-07-30 20:34:00,70.5,69.3,30.03,SSE,156,2.0,3.0,96,0.00,,,0.30,Wunderground v.1.15,2013-07-31 01:34:00,
2013-07-30 20:39:00,70.4,69.2,30.03,SE,127,0.0,3.0,96,0.00,,,0.30,Wunderground v.1.15,2013-07-31 01:39:00,
2013-07-30 20:44:00,70.4,69.2,30.04,SW,224,2.0,2.0,96,0.00,,,0.30,Wunderground v.1.15,2013-07-31 01:44:00,
2013-07-30 20:49:00,70.3,69.1,30.04,SSE,155,0.0,4.0,96,0.00,,,0.30,Wunderground v.1.15,2013-07-31 01:49:00,
2013-07-30 20:54:00,70.3,69.1,30.04,WSW,238,0.0,2.0,96,0.00,,,0.30,Wunderground v.1.15,2013-07-31 01:54:00,
2013-07-30 20:59:00,70.3,69.1,30.05,West,262,1.0,3.0,96,0.00,,,0.30,Wunderground v.1.15,2013-07-31 01:59:00,
2013-07-30 21:04:00,70.3,69.1,30.05,SSW,200,0.0,3.0,96,0.00,,,0.30,Wunderground v.1.15,2013-07-31 02:04:00,
2013-07-30 21:09:00,70.3,69.1,30.05,West,262,1.0,4.0,96,0.00,,,0.30,Wunderground v.1.15,2013-07-31 02:09:00,
2013-07-30 21:14:00,70.3,69.4,30.05,WSW,248,2.0,2.0,97,0.00,,,0.30,Wunderground v.1.15,2013-07-31 02:14:00,
2013-07-30 21:19:00,70.4,69.5,30.06,South,188,1.0,5.0,97,0.00,,,0.31,Wunderground v.1.15,2013-07-31 02:19:00,
2013-07-30 21:24:00,70.3,69.4,30.05,WSW,240,0.0,4.0,97,0.00,,,0.31,Wunderground v.1.15,2013-07-31 02:24:00,
2013-07-30 21:29:00,70.4,69.5,30.05,SE,132,1.0,4.0,97,0.00,,,0.31,Wunderground v.1.15,2013-07-31 02:29:00,
2013-07-30 21:34:00,70.4,69.5,30.05,SE,139,3.0,4.0,97,0.00,,,0.31,Wunderground v.1.15,2013-07-31 02:34:00,
2013-07-30 21:39:00,70.4,69.5,30.05,SE,133,0.0,4.0,97,0.00,,,0.31,Wunderground v.1.15,2013-07-31 02:39:00,
2013-07-30 21:44:00,70.4,69.5,30.05,SE,146,3.0,3.0,97,0.00,,,0.31,Wunderground v.1.15,2013-07-31 02:44:00,
2013-07-30 21:49:00,70.4,69.5,30.05,SE,139,2.0,3.0,97,0.00,,,0.31,Wunderground v.1.15,2013-07-31 02:49:00,
2013-07-30 21:54:00,70.4,69.5,30.05,SE,139,1.0,5.0,97,0.00,,,0.31,Wunderground v.1.15,2013-07-31 02:54:00,
2013-07-30 21:59:00,70.5,69.6,30.04,SE,145,1.0,5.0,97,0.00,,,0.31,Wunderground v.1.15,2013-07-31 02:59:00,
2013-07-30 22:04:00,70.5,69.3,30.04,SE,145,0.0,2.0,96,0.00,,,0.31,Wunderground v.1.15,2013-07-31 03:04:00,
2013-07-30 22:09:00,70.5,69.3,30.05,WSW,240,0.0,3.0,96,0.00,,,0.31,Wunderground v.1.15,2013-07-31 03:09:00,
2013-07-30 22:14:00,70.5,69.3,30.04,SE,139,1.0,2.0,96,0.00,,,0.31,Wunderground v.1.15,2013-07-31 03:14:00,
2013-07-30 22:19:00,70.6,69.4,30.05,West,266,0.0,2.0,96,0.00,,,0.31,Wunderground v.1.15,2013-07-31 03:19:00,
2013-07-30 22:24:00,70.5,69.3,30.05,SSE,162,2.0,4.0,96,0.00,,,0.31,Wunderground v.1.15,2013-07-31 03:24:00,
2013-07-30 22:29:00,70.5,69.3,30.05,SW,215,1.0,4.0,96,0.00,,,0.31,Wunderground v.1.15,2013-07-31 03:29:00,
2013-07-30 22:34:00,70.5,69.6,30.05,ESE,123,1.0,2.0,97,0.00,,,0.31,Wunderground v.1.15,2013-07-31 03:34:00,
2013-07-30 22:39:00,70.5,69.6,30.05,SSE,149,1.0,2.0,97,0.00,,,0.31,Wunderground v.1.15,2013-07-31 03:39:00,
2013-07-30 22:44:00,70.5,69.6,30.05,WSW,246,1.0,3.0,97,0.00,,,0.31,Wunderground v.1.15,2013-07-31 03:44:00,
2013-07-30 22:49:00,70.5,69.6,30.05,WSW,238,0.0,3.0,97,0.00,,,0.31,Wunderground v.1.15,2013-07-31 03:49:00,
2013-07-30 22:54:00,70.5,69.3,30.05,SE,124,3.0,6.0,96,0.00,,,0.32,Wunderground v.1.15,2013-07-31 03:54:00,
2013-07-30 22:59:00,70.5,69.3,30.04,East,91,5.0,6.0,96,0.00,,,0.32,Wunderground v.1.15,2013-07-31 03:59:00,
2013-07-30 23:01:00,70.5,69.3,30.04,SSE,148,4.0,6.0,96,0.00,,,0.32,Wunderground v.1.15,2013-07-31 04:01:00,
2013-07-30 23:06:00,70.6,69.4,30.03,SE,142,3.0,7.0,96,0.00,,,0.32,Wunderground v.1.15,2013-07-31 04:06:00,
2013-07-30 23:11:00,70.6,69.1,30.03,SSE,153,4.0,4.0,95,0.00,,,0.32,Wunderground v.1.15,2013-07-31 04:11:00,
2013-07-30 23:16:00,70.6,69.1,30.03,SE,131,2.0,5.0,95,0.00,,,0.32,Wunderground v.1.15,2013-07-31 04:16:00,
2013-07-30 23:21:00,70.6,68.8,30.03,SSE,148,2.0,4.0,94,0.00,,,0.32,Wunderground v.1.15,2013-07-31 04:21:00,
2013-07-30 23:26:00,70.8,69.0,30.03,SSE,166,4.0,7.0,94,0.00,,,0.32,Wunderground v.1.15,2013-07-31 04:26:00,
2013-07-30 23:31:00,70.9,69.1,30.03,SE,134,2.0,5.0,94,0.00,,,0.32,Wunderground v.1.15,2013-07-31 04:31:00,
2013-07-30 23:36:00,70.9,69.1,30.03,SSE,153,2.0,6.0,94,0.00,,,0.32,Wunderground v.1.15,2013-07-31 04:36:00,
2013-07-30 23:41:00,70.9,69.1,30.03,SE,139,3.0,5.0,94,0.00,,,0.32,Wunderground v.1.15,2013-07-31 04:41:00,
2013-07-30 23:46:00,70.9,69.1,30.03,SSE,150,1.0,5.0,94,0.00,,,0.32,Wunderground v.1.15,2013-07-31 04:46:00,
2013-07-30 23:51:00,70.9,69.1,30.03,ESE,115,3.0,5.0,94,0.00,,,0.32,Wunderground v.1.15,2013-07-31 04:51:00,
2013-07-30 23:56:00,71.0,69.2,30.03,SSE,147,2.0,7.0,94,0.00,,,0.32,Wunderground v.1.15,2013-07-31 04:56:00,